Zurück zum Katalog

STARLINK-35361

AktivKommunikationSSO
NORAD 65667·PAYLOAD·🇺🇸 United States

Gestartet Sep 19, 2025 von Vandenberg Space Force Base

Loading…

Nächste Überflüge (nächste 24 Stunden)

TLE

AktuellSource: CelesTrak SupGP

Epoche: Sep 14, 2026, 15:17 UTC

1 65667C 25211R   26257.63729167 -.00046807  00000+0 -14530-2 0  2572
2 65667  97.2838 297.8791 0001327  99.1885 125.8580 15.33463819    18

Verfolge STARLINK-35361 in Echtzeit mit AllMySat

Download on the App Store